Weather in Exmouth

United Kingdom     50°37′44″N   3°24′32″W
temp.,
°C
wind,
m/s
gust,
m/s
humid.,
%
clouds,
%
prec.,
mm/h
press.,
hPa
HPBL,
m
7 may, fri
fri701:000wnw33840 0.0 101529
04:000wnw23890 0.0 101629
07:00+3wnw12830 0.0 101664
10:00+10w34575 0.0 10171361
13:00+12sse445193 0.1 10171740
16:00+11s7657100 0.0 10161070
19:00+8sse4771100 0.0 1015574
22:00+7se4967100 0.0 1014398
8 may, sat
sat801:00+7se61295100 0.9 1010482
04:00+9sse71499100 4.4 1004606
07:00+11ssw91896100 7.8 10021073
10:00+13ssw91794100 0.1 1001881
13:00+13ssw91792100 0.1 1001832
16:00+14ssw101888100 0.0 1000880
19:00+13ssw91787100 0.1 999927
22:00+13s81685100 0.1 9981004
9 may, sun
sun901:00+13s81585100 0.1 997956
04:00+12s7158994 0.1 995764
07:00+12ssw51195100 0.2 994755
10:00+13ssw61075100 0.0 995911
13:00+13ssw7127295 0.0 9951203
16:00+14ssw81167100 0.0 9941306
19:00+12ssw61181100 0.0 994979
22:00+9s51196100 0.0 994568
10 may, mon
mon1001:00+10ssw7128667 0.2 994852
04:00+9ssw7128593 0.1 995835
07:00+10ssw8128093 0.1 9971036
10:00+12sw9136999 0.1 9991377
13:00+13ssw10136375 0.2 10011846
16:00+13ssw8126419 0.3 10011642
19:00+11s610750 0.4 10021150
22:00+7sse369442 0.0 1003153
11 may, tue
tue1101:00+7s49945 0.1 1003275
04:00+8s6149320 0.1 1003663
07:00+9sw511896 0.2 1004610
10:00+12ssw686714 0.0 10051310
13:00+14s79615 0.1 10061553
16:00+13s897583 0.2 10071186
19:00+12s698415 0.5 1008860
22:00+9ssw589098 0.1 1009392